Find Pandora

NORAD ID: 67395 Int'l Des: 2026-004 Owner: GSFC Country: US operational
LEOCIRCULARRETROGRADESSO

实时位置

正在加载3D地球...

关于 Pandora

正在加载描述...

即将过境

Passes for default location (London). Set your location on the main map for personalized predictions.

高度历史

Loading altitude history...

两行轨道根数

1 67395U 26004AJ 26106.57395420 .00000535 00000-0 64306-4 0 9998
2 67395 97.8044 106.1963 0004744 349.4230 10.6886 14.87964699 14113
Epoch: Apr 16, 2026 • Age: 11 hours

当前状态

高度 604.9 km
速度 7.56 km/s
星下点 -5.60°S, 113.47°W
发射日期 Jan 11, 2026
运行时间 0.2 years
类型 other

技术详情

分类 Payload
质量 300.00 kg
干质量 300.00 kg
总质量 300.00 kg
长度 1.30 m
直径 1.00 m
跨度 4.00 m
形状 Box+cyl+pan
制造商 BLCAN/LLNL
平台类型 Saturn
阶段状态 In Orbit
所有者/国家 GSFC/US

Most Searched